{"data":{"norad_id":60255,"intl_designator":"2024-131A","name":"STARLINK-32138","alt_names":[],"object_type":"PAYLOAD","status":"ACTIVE","operator":null,"country":"US","launch_date":"2024-07-27","launch_site_code":"AFETR","launch_vehicle":null,"mission":null,"orbit_class":"UNKNOWN","rcs_meters":null,"size_class":null,"mass_kg":null,"dimensions":null,"purposes":["comms"],"wikipedia_slug":null,"has_3d_model":false,"image_url":null,"decayed_at":null,"tle_current":{"epoch":"2026-05-25T03:05:45.296736Z","epoch_age_seconds":59904,"freshness":"FRESH","line1":"1 60255U 24131A   26145.12899649 -.00000261  00000+0  33514-5 0  9995","line2":"2 60255  53.1608  57.2475 0001002 100.5296 259.5818 15.31696918103729","mean_motion":15.31696918,"eccentricity":0.0001002,"inclination_deg":53.1608,"raan_deg":57.2475,"arg_perigee_deg":100.5296,"mean_anomaly_deg":259.5818,"bstar":3.3514e-6,"rev_number":10372,"period_min":94.013377129482,"perigee_km":470.06292412719,"apogee_km":471.43544091817,"semimajor_km":6848.8861825227,"source":"CELESTRAK","updated_at":"2026-05-25T13:38:19.197857Z"}}}